Dewpoint
2 -0 0 -2 3 6 7 9 11 13 14 15 16 17 18 19 21 22 23 24 28 30
1 1 -0 -1 -3 5 6 9 9 10 12 13 15 16 17 18 20 22 22 25 28 29
4 2 1 2 -0 0 4 4 6 7 10 12 14 15 16 18 19 21 22 23 26 28
1 3 3 2 3 1 2 3 4 6 8 10 13 15 16 17 18 20 21 22 24 25
0 1 -4 -2 1 3 1 2 3 5 7 10 12 15 16 18 18 20 21 22 24 25
-6 -8 -5 -5 -1 1 1 0 1 4 5 7 11 14 16 18 20 21 23 25 29 28
-7 -8 -8 -6 -4 -3 -1 -1 0 2 4 7 10 13 16 20 23 27 28 28 31 30
-6 -8 -7 -7 -6 -4 -3 -1 -1 1 4 6 9 15 18 23 27 28 27 26 28 30
-9 -8 -7 -7 -7 -6 -4 -3 -2 1 2 3 9 18 23 25 26 28 25 24 26 29
-9 -7 -6 -7 -8 -5 -5 -4 -2 1 1 2 5 18 22 25 23 26 24 25 25 27
-7 -6 -5 -7 -6 -6 -7 -3 -0 1 1 3 6 18 21 24 22 24 23 24 25 27
-5 -5 -5 -5 -5 -4 -5 -2 0 2 2 2 4 17 20 21 20 23 22 24 25 25
-3 -4 -4 -2 -3 -5 -7 -0 2 2 2 8 5 15 19 19 20 21 21 23 24 26
-0 -2 -3 -2 -1 -2 -2 -0 0 1 2 3 6 10 18 20 18 21 23 23 22 23
Lifted_Index
26 25 24 24 23 22 21 20 20 19 18 18 17 17 17 17 17 17 18 17 16 15
24 24 23 22 21 21 20 20 19 18 17 16 16 15 15 15 15 16 17 17 16 15
22 21 21 20 19 19 19 19 18 16 15 14 13 13 12 12 12 13 15 16 16 15
19 19 19 18 18 17 17 17 16 15 14 13 12 11 11 10 10 11 12 14 15 15
17 17 16 16 16 16 15 15 15 14 13 12 12 11 10 9 9 10 11 12 14 15
15 14 14 14 14 14 14 13 14 14 13 13 12 11 10 9 9 9 10 12 13 14
13 12 12 12 12 12 12 12 13 13 13 13 12 11 10 9 9 10 10 11 12 13
11 11 11 11 11 11 11 11 12 12 12 12 12 11 10 10 10 10 10 10 11 13
11 10 10 10 10 10 10 10 11 11 11 12 12 12 11 10 10 10 9 9 11 12
10 10 10 10 9 9 10 10 10 10 11 11 11 12 12 11 11 10 10 9 10 12
10 10 10 9 9 9 9 9 10 10 10 11 11 12 12 12 11 10 10 10 10 11
10 10 10 9 9 9 9 9 9 10 10 10 11 12 12 12 12 11 10 10 11 11
11 10 10 10 10 9 9 9 10 10 10 11 11 12 12 13 12 12 11 10 11 11
11 11 10 10 10 10 10 10 10 10 10 11 11 12 12 13 13 12 12 11 11 10